Location: Montbazon
(47.2835°N, 0.6999°E)
Time: 16:46:06
(UTC+00:00)

Cosmos 1023 Rocket - Pass Details

Date: 08 November 2025
Orbit: 732 x 766 km, 74.1° (Epoch: 12 December)

Event Time Altitude Azimuth Distance (km) Brightness Sun altitude
Exits shadow 04:58:50 27° 318° (NW) 1,388 5.4 -19.2°
Maximum altitude 05:01:23 54° 254° (WSW) 889 4.5 -18.8°
Drops below altitude 10° 05:06:16 10° 178° (S) 2,227 7.0 -18.0°
Sets 05:08:39 0° 173° (S) 3,145 7.8 -17.6°
